Pomona, MO

5:06 AM CST on December 04, 2016 (GMT -0600)
West Plains Municipal

Weather History for KUNO - April, 2014

Change the Weather History Date:

Wednesday, April 2, 2014

  Actual Average Record
Temperature  
Mean Temperature 63 °F 53 °F  
Max Temperature 70 °F 66 °F 87 °F (2012)
Min Temperature 55 °F 41 °F 22 °F (1992)
Degree Days  
Heating Degree Days 2 12  
Month to date heating degree days 9 24  
Since 1 July heating degree days 4509 4034  
Cooling Degree Days 0 0  
Month to date cooling degree days 0 0  
Year to date cooling degree days 0 4  
Growing Degree Days 12 (Base 50)    
Moisture  
Dew Point 59 °F    
Average Humidity 87    
Maximum Humidity 100    
Minimum Humidity 73    
Precipitation  
Precipitation T in 0.14 in 1.20 in (2010)
Month to date precipitation T 0.30  
Year to date precipitation 5.07 10.15  
Sea Level Pressure  
Sea Level Pressure 29.89 in    
Wind  
Wind Speed 10 mph (SSE)    
Max Wind Speed 20 mph    
Max Gust Speed 26 mph    
Visibility 6 miles    
Events Rain , Thunderstorm    
T = Trace of Precipitation, MM = Missing Value Source: NWS Daily Summary

Daily Weather History Graph

Daily Weather History Graph

Search for Another Location

Airport or City:

Trip Planner

Search our weather history database for the weather conditions in past years. The results will help you decide how hot, cold, wet, or windy it might be!

Date:

Astronomy

Apr. 02, 2014 Rise Set
Actual Time 6:51 AM CDT 7:30 PM CDT
Civil Twilight 6:25 AM CDT 7:57 PM CDT
Nautical Twilight 5:55 AM CDT 8:27 PM CDT
Astronomical Twilight 5:23 AM CDT 8:59 PM CDT
Moon 8:40 AM CDT (4/2) 10:49 PM CDT (4/2)
Length of Visible Light 13h 31m
Length of Day
12h 38m
Waxing Crescent, 10% of the Moon is Illuminated
Apr 2
Waxing Crescent
Apr 7
First Quarter
Apr 15
Full
Apr 22
Last Quarter
Apr 29
New

Hourly Weather History & Observations

Time (CDT) Temp. Dew Point Humidity Pressure Visibility Wind Dir Wind Speed Gust Speed Precip Events Conditions
12:53 AM 55.9 °F 54.0 °F 93% 29.96 in 5.0 mi SSE 3.5 mph - N/A   Partly Cloudy
1:53 AM 55.9 °F 54.0 °F 93% 29.96 in 5.0 mi Calm Calm - N/A   Overcast
2:10 AM 55.9 °F 55.0 °F 97% 29.97 in 5.0 mi Calm Calm - N/A   Overcast
2:32 AM 57.0 °F 55.0 °F 93% 29.96 in 5.0 mi SSE 3.5 mph - N/A   Overcast
2:53 AM 55.9 °F 55.0 °F 97% 29.94 in 5.0 mi SSE 5.8 mph - N/A   Overcast
3:53 AM 57.0 °F 55.0 °F 93% 29.92 in 6.0 mi Calm Calm - N/A   Overcast
4:53 AM 57.9 °F 55.0 °F 90% 29.93 in 6.0 mi Calm Calm - N/A   Overcast
5:00 AM 57.9 °F 55.0 °F 90% 29.95 in 6.0 mi Calm Calm - N/A   Overcast
5:53 AM 57.9 °F 55.9 °F 93% 29.92 in 6.0 mi SE 3.5 mph - N/A   Overcast
7:51 AM 59.0 °F 55.4 °F 88% 29.94 in 1.5 mi North - - N/A Thunderstorm Overcast
7:53 AM 59.0 °F 55.9 °F 90% 29.91 in 1.0 mi North - - N/A Thunderstorm Overcast
8:01 AM 59.0 °F 55.9 °F 90% 29.92 in 2.0 mi SE 8.1 mph - 0.00 in Rain , Thunderstorm Light Thunderstorms and Rain
8:08 AM 59.0 °F 57.0 °F 93% 29.92 in 5.0 mi SE 8.1 mph - 0.00 in Rain , Thunderstorm Light Thunderstorms and Rain
8:17 AM 59.0 °F 57.0 °F 93% 29.93 in 6.0 mi SSE 8.1 mph - 0.00 in Thunderstorm Overcast
8:23 AM 59.0 °F 57.0 °F 93% 29.93 in 5.0 mi SSE 5.8 mph - 0.00 in Thunderstorm Overcast
8:30 AM 59.0 °F 57.0 °F 93% 29.94 in 5.0 mi SSE 8.1 mph - 0.00 in   Overcast
8:53 AM 60.1 °F 57.9 °F 93% 29.91 in 5.0 mi SSE 10.4 mph - 0.00 in   Overcast
9:53 AM 63.0 °F 60.1 °F 90% 29.89 in 6.0 mi South 12.7 mph - N/A   Overcast
10:25 AM 66.9 °F 61.0 °F 81% 29.90 in 10.0 mi South 13.8 mph 23.0 mph N/A   Mostly Cloudy
10:53 AM 68.0 °F 61.0 °F 78% 29.87 in 10.0 mi South 13.8 mph 19.6 mph N/A   Mostly Cloudy
11:41 AM 69.1 °F 61.0 °F 75% 29.91 in 10.0 mi SSW 18.4 mph 23.0 mph N/A   Mostly Cloudy
11:53 AM 68.0 °F 60.1 °F 76% 29.89 in 10.0 mi South 11.5 mph 25.3 mph N/A   Overcast
12:53 PM 66.9 °F 61.0 °F 81% 29.88 in 9.0 mi South 10.4 mph - N/A   Overcast
1:36 PM 66.9 °F 61.0 °F 81% 29.88 in 8.0 mi South 13.8 mph 19.6 mph N/A   Overcast
1:53 PM 68.0 °F 61.0 °F 78% 29.86 in 8.0 mi South 11.5 mph 19.6 mph N/A   Overcast
2:53 PM 69.1 °F 61.0 °F 75% 29.85 in 9.0 mi SSE 9.2 mph 18.4 mph N/A   Overcast
3:53 PM 66.9 °F 62.1 °F 84% 29.83 in 10.0 mi South 13.8 mph - N/A   Overcast
4:31 PM 68.0 °F 62.1 °F 81% 29.85 in 10.0 mi South 12.7 mph - N/A   Overcast
5:28 PM 66.9 °F 62.1 °F 84% 29.85 in 10.0 mi South 9.2 mph - N/A   Overcast
5:53 PM 66.9 °F 62.1 °F 84% 29.83 in 10.0 mi South 12.7 mph - N/A   Overcast
6:53 PM 66.0 °F 63.0 °F 90% 29.83 in 10.0 mi South 13.8 mph - N/A   Overcast
7:23 PM 64.9 °F 63.0 °F 93% 29.85 in 8.0 mi South 10.4 mph - N/A   Overcast
7:53 PM 64.9 °F 63.0 °F 93% 29.83 in 5.0 mi SSE 11.5 mph - N/A   Overcast
8:53 PM 64.9 °F 64.0 °F 97% 29.83 in 4.0 mi SSE 9.2 mph - N/A   Overcast
9:53 PM 64.9 °F 64.0 °F 97% 29.84 in 3.0 mi SSE 8.1 mph - N/A   Overcast
10:06 PM 64.9 °F 64.0 °F 97% 29.86 in 2.0 mi SSE 6.9 mph - N/A   Overcast
10:42 PM 64.9 °F 64.0 °F 97% 29.86 in 3.0 mi SSE 9.2 mph - 0.00 in Rain Light Rain
11:41 PM 66.0 °F 64.0 °F 93% 29.82 in 5.0 mi SSE 12.7 mph 19.6 mph N/A   Overcast
11:53 PM 66.0 °F 64.9 °F 96% 29.79 in 5.0 mi SSE 12.7 mph - N/A   Overcast